This demonstration page uses our WeatherBlox Daily Observations layout. Learn more.

Left ArrowRight Arrow

Hourly Observations for May 15, 2018

Temp ( °F °C ) Dew Point ( °F °C ) Humidity (%) Winds ( mph kmh ) Pressure ( in mb ) Visibility ( mi km ) Precip ( " mm )
12:53 am 00:53 Clear 77 25 64 17.8 64 64 SSW 5 7 29.85 1011 10 16 0.00 0.00
1:53 am 01:53 Clear 73 22.8 65 18.3 76 76 WSW 5 7 29.85 1011 10 16 0.00 0.00
2:53 am 02:53 Clear 71 21.7 64 17.8 79 79 Calm 29.86 1011 10 16 0.00 0.00
3:53 am 03:53 Clear 68 20 65 18.3 90 90 Calm 29.85 1011 10 16 0.00 0.00
4:53 am 04:53 Clear 68 20 63 17.2 84 84 W 3 6 29.86 1011 10 16 0.00 0.00
5:53 am 05:53 Clear 71 21.7 64 17.8 79 79 W 6 9 29.88 1012 10 16 0.00 0.00
6:53 am 06:53 Sunny 71 21.7 64 17.8 79 79 WSW 6 9 29.90 1013 10 16 0.00 0.00
7:53 am 07:53 Sunny 74 23.3 63 17.2 69 69 WSW 6 9 29.91 1013 10 16 0.00 0.00
8:53 am 08:53 Sunny 76 24.4 61 16.1 60 60 SW 7 11 29.91 1013 10 16 0.00 0.00
9:53 am 09:53 Sunny 78 25.6 63 17.2 60 60 VRB 6 9 29.91 1013 10 16 0.00 0.00
10:53 am 10:53 Sunny 81 27.2 63 17.2 54 54 VRB 3 6 29.92 1013 10 16 0.00 0.00
11:53 am 11:53 Sunny 82 27.8 63 17.2 53 53 WSW 7 11 29.93 1014 10 16 0.00 0.00
12:53 pm 12:53 Sunny 85 29.4 62 16.7 46 46 Calm 29.93 1013 10 16 0.00 0.00
1:53 pm 13:53 Sunny 86 30 63 17.2 46 46 Calm 29.91 1013 10 16 0.00 0.00
2:53 pm 14:53 Mostly Sunny 86 30 63 17.2 46 46 W 3 6 29.89 1012 10 16 0.00 0.00
3:53 pm 15:53 Mostly Cloudy 88 31.1 62 16.7 42 42 WNW 10 17 29.87 1012 10 16 0.00 0.00
4:53 pm 16:53 Partly Cloudy with Nearby Thunderstorms 88 31.1 60 15.6 39 39 WNW 9 15 29.85 1011 10 16 0.00 0.00
5:11 pm 17:11 Mostly Cloudy 81 27.2 63 17.2 54 54 N 13 20 29.85 1011 10 16 0.00 0.00
5:53 pm 17:53 Mostly Sunny 82 27.8 65 18.3 56 56 NNE 6 9 29.87 1011 10 16 0.00 0.00
6:53 pm 18:53 Partly Cloudy 80 26.7 67 19.4 64 64 NE 9 15 29.88 1012 10 16 0.01 0.25
7:53 pm 19:53 Sunny 77 25 66 18.9 69 69 E 9 15 29.89 1012 10 16 0.00 0.00
8:53 pm 20:53 Clear 72 22.2 64 17.8 76 76 E 6 9 29.90 1013 10 16 0.00 0.00
9:53 pm 21:53 Clear 72 22.2 65 18.3 79 79 E 5 7 29.92 1013 10 16 0.00 0.00
10:53 pm 22:53 Clear 71 21.7 66 18.9 84 84 NE 5 7 29.94 1014 10 16 0.00 0.00
11:53 pm 23:53 Partly Cloudy 71 21.7 66 18.9 84 84 E 7 11 29.94 1014 10 16 0.00 0.00

Powered by AerisWeather